GFSSW_850_temp_132.txt.gz
Temp
15 15 15 16 16 16 16 16 16 16 17 17 17 18 18 19 19 20 21 22 22 22 22 22 22 20 19 19 20 20 18 20 20 22 21 23 25 24 24 23 23 23 20 20 19
15 15 15 16 16 16 16 16 16 16 16 17 18 18 18 19 20 21 23 22 22 22 23 22 21 21 20 20 20 18 17 19 18 18 21 24 24 25 24 24 22 21 21 20 20
15 15 16 16 16 16 16 16 16 16 16 17 17 18 18 19 20 23 23 23 22 22 22 23 22 21 21 20 18 17 17 18 18 18 19 20 24 23 22 21 21 20 20 20 19
15 15 16 16 16 16 16 16 16 16 16 17 17 17 18 18 20 22 22 23 23 22 21 22 21 21 22 20 16 18 17 19 19 19 19 19 24 23 23 23 22 21 21 20 19
15 15 15 16 16 16 16 16 16 16 17 17 17 17 17 18 22 22 22 22 22 22 22 22 21 22 22 24 18 19 19 19 20 20 20 22 23 24 24 23 22 21 21 21 20
15 15 15 16 16 16 16 16 16 16 17 17 17 17 17 16 22 22 22 22 22 22 23 22 24 24 24 24 22 20 21 20 20 21 20 23 23 24 24 24 23 22 22 21 21
15 15 15 16 16 16 16 16 16 16 17 17 17 17 17 21 22 21 22 22 22 23 23 23 23 22 24 24 23 21 20 19 19 19 21 23 22 21 23 24 24 23 22 22 21
15 15 15 16 16 16 16 16 16 17 17 17 16 17 19 22 22 21 21 22 22 22 24 24 23 22 23 26 24 22 20 19 19 21 21 22 21 21 22 24 24 24 23 22 22
15 15 15 16 16 17 17 17 17 17 17 17 16 16 20 22 23 23 22 22 22 23 23 24 23 23 25 22 21 20 19 18 20 22 22 21 21 22 22 24 24 24 22 22 22
15 15 16 16 17 17 18 18 18 17 17 17 17 15 21 23 23 23 22 22 23 23 23 23 23 20 19 19 19 19 18 18 19 20 21 19 20 22 21 23 23 22 23 22 22
15 16 16 16 17 18 19 19 19 18 17 19 21 21 22 23 23 23 23 23 23 23 21 23 20 20 21 21 21 22 21 22 18 18 19 20 19 21 20 22 22 22 22 22 22
15 16 16 17 18 18 19 20 21 19 18 21 21 20 22 23 23 23 23 23 23 21 22 20 19 22 22 22 22 25 22 19 17 17 19 18 19 20 21 21 21 21 22 22 22
15 16 17 17 18 18 19 20 20 19 18 21 23 23 24 23 24 24 24 24 23 22 22 19 21 24 23 22 24 23 21 20 20 19 18 19 18 19 21 21 21 21 21 22 22
15 16 17 18 18 19 20 20 19 19 14 19 22 23 24 24 24 24 24 24 23 21 20 20 23 24 24 24 25 21 23 22 19 19 18 17 18 19 20 20 20 20 21 21 22
16 16 17 18 18 19 20 20 21 20 16 23 23 25 25 24 24 24 24 24 22 22 21 21 24 24 24 26 26 22 23 21 20 16 17 18 18 17 18 20 21 20 21 21 21
16 17 17 18 19 20 20 21 21 16 17 22 24 23 23 23 24 24 24 25 25 23 22 21 25 25 25 27 26 24 22 20 18 17 18 18 18 18 17 20 21 21 20 21 21
17 18 18 19 20 19 19 20 15 16 21 23 23 23 22 20 21 23 23 23 21 22 21 22 24 25 27 23 23 23 20 19 18 17 20 18 18 20 21 22 22 22 20 21 21
18 19 19 20 20 20 19 16 17 21 20 22 22 20 19 21 21 21 22 21 22 21 20 20 21 26 28 25 22 22 21 19 19 19 20 18 20 22 20 23 22 22 21 21 20
19 20 20 20 20 20 19 14 17 19 24 23 21 18 19 21 20 19 21 21 22 21 21 22 22 25 27 27 25 24 21 23 20 20 21 20 19 20 21 20 20 21 21 20 21
20 20 21 20 20 20 15 16 19 22 24 21 19 20 20 19 19 17 19 23 24 25 23 23 22 24 24 27 26 25 24 22 18 21 21 22 21 19 19 19 20 20 20 21 21
20 20 21 21 20 20 15 15 20 24 26 23 20 19 20 19 17 18 19 21 23 23 23 22 20 22 23 24 23 23 22 21 19 18 21 21 22 23 21 20 19 19 19 20 21
19 16 22 21 18 16 15 19 24 23 25 24 23 23 22 19 18 20 20 20 24 23 22 21 17 21 22 23 23 22 23 19 18 21 18 20 20 18 17 18 18 18 21 19 20
18 19 21 21 16 15 17 20 23 23 23 23 23 23 22 21 20 20 21 24 24 23 22 22 18 18 19 19 20 20 22 20 18 16 20 20 19 18 18 18 19 18 19 21 20
17 14 21 22 22 20 18 20 23 25 24 24 23 22 20 19 19 21 21 24 24 24 25 22 18 17 17 18 19 21 22 21 20 18 18 19 17 18 17 17 19 20 19 21 22
16 16 19 16 19 18 19 21 23 23 23 24 22 21 21 20 19 20 20 21 23 23 23 19 20 20 20 21 20 23 22 22 20 19 21 19 17 17 16 17 16 17 18 22 22
17 17 18 18 19 20 20 21 21 22 21 21 20 20 18 18 20 21 20 20 21 21 20 16 19 20 20 21 21 21 22 21 21 20 18 18 17 17 15 16 17 18 16 17 17
15 16 16 19 18 17 19 23 22 22 22 22 20 18 19 20 22 23 23 23 21 22 20 18 16 16 19 18 21 18 18 20 19 19 20 17 17 16 15 15 16 17 15 16 16

GFSSW_850_temp_138.txt.gz
Temp
15 15 15 15 16 16 16 16 16 17 17 17 17 18 18 19 19 20 22 22 22 21 21 21 20 20 20 19 19 19 18 20 19 21 21 22 21 22 21 20 20 19 19 19 18
14 15 15 15 16 16 16 16 16 16 17 17 17 18 18 19 20 21 22 22 22 21 21 21 20 20 20 19 20 19 18 19 18 19 19 23 22 21 21 20 19 19 19 18 18
15 15 15 15 15 15 16 16 16 16 16 17 17 18 18 19 20 21 22 22 22 21 21 21 20 20 20 19 19 19 19 19 18 19 19 21 22 22 21 19 19 18 18 18 18
14 15 15 15 15 15 15 16 16 16 16 17 17 18 18 19 21 21 21 22 22 21 21 20 20 21 20 20 18 20 18 19 18 19 20 21 21 22 22 21 21 21 20 19 18
14 15 15 15 15 15 16 16 16 16 17 17 17 18 18 19 21 21 22 22 21 21 21 21 20 21 21 20 19 20 19 19 20 19 20 20 20 22 21 21 20 20 19 19 19
14 15 15 15 15 16 16 16 16 17 17 17 17 18 18 18 21 21 21 22 21 21 21 21 21 21 21 20 20 20 21 20 20 20 20 18 20 22 21 20 19 20 19 19 19
15 15 15 15 16 16 17 17 17 17 17 17 17 18 18 20 20 21 21 21 21 21 21 22 21 21 21 17 20 20 19 20 19 19 18 18 19 19 20 19 19 19 19 19 19
15 15 15 16 16 17 17 17 17 17 17 18 18 17 19 21 21 21 21 20 20 20 21 21 21 21 21 21 20 19 19 19 18 19 18 18 19 19 20 20 19 19 19 19 19
15 15 16 16 17 17 18 18 18 18 17 17 18 17 20 21 21 21 21 20 20 20 20 21 21 22 22 18 17 17 18 18 19 19 18 18 18 20 20 20 19 19 18 19 19
15 16 16 17 17 18 18 18 18 18 17 17 17 18 21 21 21 21 22 21 21 21 21 21 21 17 15 16 17 18 17 18 17 17 16 17 19 19 20 21 20 19 19 19 19
15 15 16 17 18 18 19 19 18 18 17 19 19 19 21 21 21 22 22 21 21 21 18 20 18 18 19 19 19 18 18 18 17 16 16 16 17 19 17 18 20 19 19 19 20
15 16 16 17 18 18 19 18 17 17 16 19 19 20 22 22 22 21 21 21 20 18 19 17 18 19 20 20 21 20 20 18 16 16 17 16 17 17 16 18 20 20 20 19 19
15 16 17 17 18 19 19 18 18 17 15 20 21 21 22 22 22 22 22 22 20 19 19 18 21 20 21 21 22 22 21 19 20 17 16 17 17 17 16 18 19 20 21 20 21
16 16 17 18 19 19 19 19 19 19 14 20 21 22 23 23 22 23 22 23 21 19 18 20 21 21 21 22 21 22 20 21 19 17 18 18 18 17 16 18 19 19 20 20 21
16 17 17 18 19 19 19 19 19 19 16 22 22 23 23 23 23 22 23 23 21 21 19 20 21 21 21 21 22 20 19 18 18 16 18 18 17 19 17 17 18 18 19 20 21
17 18 18 19 19 19 19 19 19 15 18 20 22 22 22 21 21 22 23 23 23 21 19 19 22 22 21 23 22 20 19 17 16 16 18 18 18 18 17 18 19 20 19 19 20
18 19 19 19 20 19 20 19 15 16 19 21 21 20 19 18 19 20 21 20 18 19 19 19 20 21 23 19 20 19 18 18 17 17 18 15 18 19 19 20 20 20 19 19 20
19 19 19 19 20 20 20 16 18 20 19 20 19 19 19 19 19 18 20 19 19 20 17 18 21 21 21 19 19 19 18 19 19 18 18 17 18 20 20 21 22 21 20 20 20
19 20 20 20 20 20 19 15 17 18 20 21 20 19 19 19 19 19 18 18 19 18 19 18 20 23 21 21 20 20 19 19 17 17 17 18 18 20 20 20 20 21 20 20 19
20 20 20 20 20 20 15 15 16 17 20 20 20 19 19 18 19 19 19 20 21 19 19 20 19 21 22 23 21 19 18 19 14 18 18 19 19 20 19 19 19 19 19 19 19
20 20 19 19 19 19 15 14 17 20 20 20 19 19 18 18 17 17 19 20 21 21 18 19 18 20 21 20 19 19 19 16 17 18 18 19 20 18 17 19 18 18 19 20 20
19 15 19 19 17 11 14 16 20 20 21 21 19 19 19 17 18 18 18 19 22 21 21 19 15 18 20 18 18 19 19 17 17 19 17 18 19 15 16 17 18 19 20 20 20
17 17 18 18 14 13 15 17 19 20 21 22 21 20 19 18 19 18 19 22 22 21 21 20 16 17 20 17 19 19 20 15 14 16 17 19 19 16 16 16 16 16 17 18 18
16 14 17 18 17 16 17 17 19 21 21 19 19 19 18 18 18 20 19 22 22 20 20 20 16 17 16 16 16 19 17 17 16 18 17 17 16 15 14 14 14 16 17 18 17
15 13 14 15 15 16 17 17 20 21 20 19 18 18 19 19 19 18 18 18 21 21 19 16 18 17 17 19 18 18 17 16 17 17 20 16 15 15 13 14 14 15 16 17 17
14 13 15 15 15 15 13 17 18 20 20 20 18 19 18 18 19 20 19 19 20 19 20 16 18 18 18 19 18 18 18 17 17 16 15 15 14 14 14 14 14 14 14 15 16
13 13 13 15 14 15 14 17 20 19 20 20 19 18 20 19 20 20 19 20 19 19 18 17 17 16 17 18 17 17 17 17 17 16 16 16 15 14 14 14 13 14 14 14 15

GFSSW_850_temp_141.txt.gz
Temp
15 15 15 16 16 16 16 16 16 16 17 17 17 18 18 19 20 20 21 22 22 21 21 21 20 19 19 19 19 19 22 22 22 24 22 22 22 21 20 20 20 19 19 18 17
14 15 15 15 16 16 16 16 16 16 17 17 17 18 18 19 20 21 21 22 22 21 21 21 20 20 20 20 19 21 19 20 20 21 23 23 23 22 22 21 19 18 18 17 17
14 15 15 15 15 16 16 16 16 16 17 17 17 18 18 19 20 20 21 22 21 21 21 21 20 20 21 20 20 20 19 19 20 20 20 23 23 22 22 22 20 19 18 16 16
14 15 15 15 15 16 16 16 16 17 17 17 17 18 18 19 22 20 21 21 21 21 21 21 20 21 22 22 20 20 19 19 18 19 21 22 22 22 22 22 21 19 18 17 16
15 15 15 15 16 16 16 16 16 17 17 17 18 18 18 19 20 21 21 21 21 21 20 20 21 22 23 22 20 21 19 20 19 20 20 20 22 22 21 20 19 18 17 17 17
15 15 15 15 16 16 16 16 16 16 17 17 18 18 18 20 20 21 22 21 21 21 21 21 21 21 22 21 22 21 21 20 20 19 19 22 21 22 20 19 19 18 18 18 18
15 15 15 16 16 16 17 17 17 17 17 18 18 18 19 20 20 21 20 20 20 21 21 21 21 22 21 21 20 21 21 21 20 19 18 19 19 20 20 20 19 19 19 18 18
15 15 16 16 17 17 18 18 18 18 17 18 18 18 20 20 20 20 20 20 20 20 21 21 21 22 22 21 21 21 21 20 19 18 17 19 19 20 20 20 20 19 19 18 18
15 15 16 17 17 17 18 18 18 18 18 18 18 18 20 20 21 21 20 20 20 20 20 21 21 21 22 22 22 21 21 20 17 16 17 17 18 18 17 20 20 20 20 19 19
15 15 16 17 17 18 19 19 18 18 18 18 18 19 21 20 21 21 21 20 20 20 20 21 21 23 22 24 23 23 21 20 19 17 17 17 17 18 17 18 19 20 20 19 19
15 16 16 17 18 18 19 19 18 19 19 19 18 19 20 20 20 21 21 20 20 20 22 20 23 24 24 24 23 22 22 21 19 18 18 17 17 17 17 19 19 20 20 20 20
16 16 16 17 18 19 19 18 18 18 17 20 20 21 21 21 21 21 21 21 21 22 21 22 23 23 23 23 23 23 23 21 17 17 18 18 17 17 16 16 19 19 20 20 20
16 16 17 18 18 19 19 18 18 17 17 20 20 21 22 22 22 21 21 21 22 21 22 23 23 23 24 23 23 24 24 21 21 18 18 17 18 17 17 16 17 19 20 21 20
16 17 17 18 19 19 19 19 19 19 21 22 22 22 22 22 22 22 22 22 22 22 22 23 22 23 23 24 24 24 23 23 20 20 19 18 20 18 17 16 18 19 19 21 20
16 17 18 18 19 19 19 19 19 19 20 22 23 22 22 22 22 22 22 23 23 22 22 23 23 23 23 24 24 22 22 22 22 21 20 19 19 19 17 17 18 19 20 20 21
17 18 18 19 19 19 19 19 19 21 20 22 22 23 23 21 21 21 22 22 22 23 22 23 22 24 25 24 25 22 23 22 21 20 21 20 21 20 18 19 20 20 19 20 21
18 19 19 19 19 19 19 19 21 21 21 22 22 22 21 21 22 22 23 23 23 22 22 23 24 23 24 23 23 24 25 22 22 21 22 19 20 23 22 22 22 22 20 20 20
19 19 19 19 19 19 19 20 20 21 21 21 21 21 22 21 21 22 22 23 22 22 22 22 23 23 24 25 24 24 25 24 22 22 23 20 20 23 22 22 22 22 20 19 20
19 19 19 20 20 20 19 20 21 21 22 22 21 22 21 21 21 21 21 22 22 23 23 22 23 24 24 23 25 23 23 23 23 21 22 23 22 22 23 22 22 22 22 20 20
19 19 19 20 20 20 20 18 20 19 21 22 22 21 21 21 21 21 22 22 23 22 21 23 23 23 24 24 22 24 24 23 22 21 22 23 22 22 21 21 22 22 22 20 20
19 19 18 19 19 19 21 20 19 20 19 22 21 21 21 21 20 21 22 23 22 22 21 23 22 23 23 24 24 23 23 23 24 24 22 23 22 20 18 19 21 21 22 20 19
19 19 18 19 19 13 20 19 19 21 19 22 21 21 21 20 21 21 21 22 22 22 23 22 23 23 23 21 22 23 24 24 25 22 22 22 21 18 17 18 19 20 20 20 20
17 17 17 18 20 19 18 19 19 21 22 22 22 21 20 21 21 20 21 22 22 23 23 22 21 23 23 22 22 22 22 22 22 23 20 23 22 18 18 18 17 17 18 18 19
16 19 17 17 16 18 19 20 21 20 21 19 21 21 21 21 20 21 22 23 21 21 19 21 21 21 24 21 19 21 21 21 24 24 22 23 19 19 18 17 16 16 17 17 17
15 15 15 19 18 18 18 18 20 22 20 20 21 21 21 21 21 21 22 23 23 21 21 22 21 21 21 20 20 20 20 21 22 21 22 22 20 18 16 15 15 15 15 16 16
13 13 14 15 14 17 14 18 19 21 21 22 22 20 20 21 22 22 21 21 22 22 21 19 22 20 20 20 21 22 21 21 21 20 19 20 17 17 14 15 15 14 15 15 15
13 13 12 15 16 18 18 19 20 21 19 20 21 22 22 21 20 20 20 19 20 20 20 20 20 20 21 20 21 20 21 20 20 19 20 21 18 15 15 15 14 14 14 14 14

GFSSW_850_temp_144.txt.gz
Temp
15 15 15 16 16 16 16 16 17 17 17 17 17 18 18 19 20 20 20 21 21 22 21 20 20 21 21 22 22 23 24 24 27 27 25 25 25 23 23 23 23 23 23 21 19
15 15 15 15 15 16 16 16 17 17 17 17 18 18 19 19 20 20 21 22 22 21 21 21 22 22 23 23 24 25 23 25 25 26 26 25 25 24 24 24 22 23 22 20 19
15 15 15 15 16 16 16 16 17 17 17 17 18 18 19 20 20 21 21 22 21 21 21 22 22 23 25 24 24 24 20 22 23 23 25 26 25 25 25 26 24 23 21 20 19
15 15 15 16 16 16 16 16 16 17 17 17 18 18 19 20 25 20 21 21 21 21 21 22 23 25 26 26 24 22 19 19 22 22 23 26 25 25 25 25 24 22 21 21 20
15 15 16 16 16 16 16 16 16 17 17 17 18 18 19 20 21 21 21 21 21 21 22 23 24 26 27 26 24 21 19 18 18 20 22 22 24 25 24 24 23 22 21 21 21
15 15 16 16 16 17 17 17 17 17 18 18 18 18 18 23 20 21 21 21 20 21 22 23 24 24 25 26 26 21 22 20 21 19 20 23 21 23 23 23 22 22 21 21 21
15 16 16 16 17 17 17 18 18 18 18 18 18 19 18 20 20 21 19 20 20 22 23 22 23 24 25 26 25 23 23 23 22 19 18 20 21 22 23 23 23 23 22 22 21
15 16 16 17 17 18 18 18 19 18 18 18 18 19 22 20 20 20 20 20 21 21 22 22 22 24 25 24 25 24 24 22 21 21 16 18 19 20 21 23 24 23 23 22 21
15 16 16 17 18 18 19 19 19 19 19 19 19 18 22 21 20 20 20 21 21 21 21 22 23 25 25 27 27 26 23 23 20 17 17 17 17 19 18 19 23 24 23 22 22
16 16 16 17 18 19 19 19 19 19 19 19 20 20 21 22 21 20 20 21 21 22 22 23 25 27 28 28 26 26 26 24 23 20 16 17 18 19 17 17 22 24 24 23 23
16 16 16 17 18 19 19 19 19 19 19 21 22 22 22 21 20 21 21 22 22 24 26 25 27 27 28 28 28 27 27 25 23 21 21 18 17 18 16 16 19 23 24 24 23
16 16 17 18 19 19 19 20 19 18 23 21 20 21 21 21 23 21 21 23 24 26 25 25 26 28 27 27 27 27 27 26 22 21 22 21 20 18 17 17 18 21 24 24 23
16 17 17 18 19 19 19 18 19 18 23 23 22 23 23 22 24 23 22 24 25 25 26 27 28 26 27 27 27 28 28 26 25 22 22 22 22 20 18 17 17 19 22 23 22
17 17 18 18 19 19 18 19 20 20 25 25 25 24 23 23 24 23 23 24 25 25 25 27 26 26 27 27 27 28 27 26 24 24 22 22 22 22 20 18 18 18 20 23 23
17 18 18 19 19 19 19 20 20 19 24 25 25 23 24 25 24 23 23 24 25 25 25 26 25 25 26 27 28 28 27 27 25 26 25 23 21 22 22 18 20 19 20 22 24
17 18 18 19 19 19 20 20 19 24 22 25 25 26 26 25 25 24 23 24 24 25 26 26 26 27 27 28 28 27 27 27 27 27 26 26 23 22 22 23 20 20 20 22 24
18 19 19 19 19 20 20 19 24 25 25 25 25 26 26 26 25 25 25 25 25 24 25 26 26 27 27 27 28 27 28 27 27 25 26 27 24 25 25 24 24 23 21 21 24
19 19 19 19 20 20 19 24 23 24 25 26 25 25 25 25 25 26 25 26 26 26 26 26 25 27 27 27 27 27 29 27 25 26 26 26 26 25 24 25 25 23 21 22 22
19 19 19 19 20 20 21 25 25 25 26 25 25 25 25 25 25 25 25 26 26 27 25 26 26 28 28 28 28 28 27 29 27 28 27 28 27 25 26 25 25 24 21 21 22
19 18 18 19 20 19 24 21 25 25 25 26 25 25 24 25 24 25 25 26 26 26 27 26 25 27 28 28 27 27 29 27 28 24 26 27 26 23 22 22 24 26 24 23 21
19 21 19 19 20 21 25 25 25 25 24 25 25 25 25 24 25 25 25 26 26 26 26 27 26 26 27 26 27 27 27 27 25 28 25 25 24 23 21 22 23 23 25 21 21
18 23 19 19 23 23 25 24 21 25 24 25 25 25 25 25 25 25 25 26 25 26 26 27 27 26 27 27 27 28 27 28 26 25 27 26 24 21 21 20 21 24 24 24 20
19 20 19 19 24 25 24 25 24 25 26 26 26 25 25 25 24 25 25 25 25 26 26 26 27 25 25 26 26 26 27 28 27 27 25 24 24 19 21 21 19 21 22 22 21
17 23 20 20 20 24 24 25 25 23 25 24 25 25 25 25 25 25 25 26 25 25 21 23 26 25 18 24 26 24 24 26 27 26 25 25 24 22 20 20 18 17 19 21 20
17 22 19 23 23 24 23 24 25 25 25 24 25 25 25 24 25 25 25 26 26 23 24 26 24 25 25 25 25 24 25 25 26 27 26 25 25 23 20 18 16 15 18 19 20
16 18 19 22 20 23 18 24 25 26 25 25 25 25 25 25 25 24 25 25 25 26 26 26 24 25 23 25 23 24 23 24 25 26 25 24 21 19 16 15 15 15 15 16 17
12 13 15 20 22 24 25 24 24 25 24 24 26 26 25 25 24 24 24 24 25 24 24 24 25 24 23 24 23 19 21 23 23 24 25 24 21 18 18 16 14 15 14 14 15

GFSSW_850_temp_147.txt.gz
Temp
15 15 15 16 16 16 16 17 17 17 17 17 18 18 19 20 20 21 21 22 22 22 22 23 23 23 24 24 25 26 26 22 28 27 28 27 27 26 26 26 26 26 24 23 22
15 15 15 16 16 16 16 17 17 17 17 17 18 18 19 20 21 21 22 22 22 22 22 24 24 25 25 24 26 26 24 24 27 23 28 28 27 27 27 26 26 26 24 22 22
15 15 16 16 16 16 16 17 17 17 17 18 18 18 19 20 19 24 22 22 23 22 22 25 25 26 25 25 26 25 22 26 27 26 28 28 28 27 28 26 26 25 23 22 23
15 16 16 16 16 16 17 17 17 17 18 18 18 19 19 20 26 22 22 22 22 21 23 24 26 27 26 25 27 24 20 23 25 25 27 27 28 27 27 26 26 25 23 23 23
16 16 16 16 17 17 17 17 17 18 18 18 18 19 20 21 24 20 22 22 22 21 24 25 27 29 25 27 27 24 20 18 21 20 24 24 27 27 27 26 25 24 24 24 24
16 16 16 17 17 17 18 18 18 18 18 19 19 19 19 25 21 21 21 22 22 23 25 26 27 27 29 28 27 23 22 20 19 21 20 22 25 26 27 26 25 24 24 24 24
16 16 16 17 17 18 18 19 19 18 19 19 19 20 20 22 21 21 21 22 23 24 25 25 26 27 28 26 25 24 23 24 21 19 18 19 22 25 26 26 25 25 25 24 24
16 16 17 17 18 18 19 19 19 19 19 19 20 20 23 21 22 22 23 23 23 24 25 25 25 27 28 26 27 26 22 21 21 22 16 20 19 20 21 24 26 25 25 25 25
16 16 17 18 18 19 19 19 19 19 19 20 20 19 24 22 22 23 23 24 24 24 24 24 25 28 28 28 28 26 24 22 22 22 19 18 18 17 21 23 26 25 25 24 24
16 16 17 18 19 19 19 20 20 21 20 21 21 21 23 25 23 23 23 23 24 25 25 25 26 29 30 31 26 25 19 26 25 22 22 19 17 17 20 22 23 25 25 25 24
16 17 17 18 19 19 20 20 19 19 20 24 25 25 25 24 23 23 23 24 25 26 28 27 28 29 31 31 30 30 28 25 26 24 23 21 18 18 18 18 19 21 24 25 24
16 17 18 18 19 19 20 22 21 21 25 24 24 25 24 25 25 24 24 26 26 27 29 29 28 31 31 31 30 31 29 22 26 25 25 23 20 18 17 17 19 20 21 21 24
17 17 18 19 19 20 20 21 20 21 25 26 25 26 25 25 27 25 24 26 27 28 28 29 30 31 30 29 29 30 30 27 26 25 26 26 22 19 18 18 16 19 22 24 24
17 18 18 19 20 20 22 20 20 20 26 26 27 26 25 26 27 25 25 27 28 28 29 29 31 29 29 29 30 30 31 29 28 26 25 26 23 23 21 20 19 18 21 22 21
17 18 19 19 19 21 21 21 21 21 26 28 28 26 26 27 27 26 25 26 28 28 28 29 28 28 28 29 30 30 29 30 29 29 28 26 25 25 24 23 21 18 22 21 23
18 19 19 19 20 20 20 21 21 25 25 27 28 28 28 28 27 26 26 26 27 28 28 29 28 29 29 30 30 30 30 30 30 30 29 27 27 26 26 25 24 20 21 22 21
19 19 19 20 21 20 20 22 26 27 28 27 28 28 28 28 28 28 27 27 27 26 27 28 28 29 29 29 30 30 29 28 28 29 28 29 28 27 27 27 23 22 22 22 25
19 19 20 20 18 19 21 26 25 27 28 28 28 28 28 28 28 28 28 28 29 28 29 28 27 29 30 29 29 29 30 28 24 22 28 24 27 26 27 27 23 21 21 20 23
19 20 18 19 20 20 22 26 28 28 28 28 28 27 28 28 27 28 28 29 29 29 28 28 28 30 30 30 30 29 29 31 27 30 28 29 26 28 27 26 26 25 23 20 22
19 21 22 19 19 20 25 25 28 28 28 28 27 27 27 28 27 28 28 28 28 29 29 29 27 30 30 30 30 30 28 27 27 24 23 28 24 23 25 24 26 26 23 21 22
19 23 21 20 20 22 26 28 28 27 27 28 27 27 28 27 27 28 27 28 28 29 29 29 29 27 30 29 29 29 25 25 28 26 25 25 23 25 23 23 23 24 22 20 21
20 25 21 20 24 26 28 28 26 28 27 28 28 28 27 27 27 28 27 28 27 28 28 29 29 27 26 25 31 31 29 30 29 23 24 26 23 24 24 23 22 24 23 22 21
21 25 21 21 25 28 28 28 27 28 28 28 28 28 28 28 26 27 27 27 27 28 28 29 28 27 21 20 29 29 29 27 22 20 22 22 23 23 22 23 21 20 23 23 20
19 25 23 22 24 27 28 27 27 27 28 27 27 27 27 27 27 26 27 28 27 27 25 26 28 21 19 21 22 21 27 19 20 21 19 20 24 24 22 22 21 19 20 21 21
20 25 25 25 26 27 28 28 27 27 27 27 27 27 27 26 27 27 27 28 28 25 26 28 26 26 24 22 19 16 25 26 23 17 21 22 26 26 24 19 17 18 20 21 21
19 22 23 25 26 27 22 27 27 28 28 27 27 27 28 27 27 26 27 27 27 24 27 28 24 22 17 20 23 25 26 23 19 22 21 21 25 23 19 17 16 15 16 17 17
17 18 18 24 25 26 27 27 27 28 28 27 28 27 27 27 27 27 27 27 28 26 27 26 26 26 24 20 20 25 26 22 20 18 23 26 26 22 19 16 15 15 14 15 15